Location: Aiyekoto
(8.4333°N, 4.3667°E)
Time: 17:10:25
(UTC+00:00)

Hubble Space Telescope - Visible Passes

Search period start: 04 August 2021 00:00
Search period end: 14 August 2021 00:00
Orbit: 535 x 539 km, 28.5° (Epoch: 03 August)

Date Brightness Start Highest point End Pass type
(mag) Time Alt. Az. Time Alt. Az. Time Alt. Az.
04 Aug 3.0 18:45:42 10° NNW 18:48:07 15° NNE 18:50:32 10° ENE visible
04 Aug 3.6 20:25:24 10° NW 20:26:19 16° NW 20:26:19 16° NW visible
05 Aug 2.7 18:34:15 10° NNW 18:37:13 19° NNE 18:40:12 10° ENE visible
05 Aug 3.1 20:14:23 10° WNW 20:15:57 22° WNW 20:15:57 22° WNW visible
06 Aug 2.3 18:22:55 10° NNW 18:26:19 24° NNE 18:29:42 10° E visible
06 Aug 2.6 20:03:28 10° WNW 20:05:39 29° W 20:05:39 29° W visible
07 Aug 2.2 19:52:38 10° W 19:55:24 33° WSW 19:55:24 33° WSW visible
08 Aug 2.2 19:41:56 10° W 19:45:11 28° SW 19:45:11 28° SW visible
09 Aug 2.6 19:31:23 10° W 19:34:32 21° SSW 19:35:01 21° SSW visible
10 Aug 3.0 19:21:05 10° WSW 19:23:33 15° SSW 19:24:54 13° S visible
11 Aug 3.4 19:11:22 10° SW 19:12:34 11° SSW 19:13:46 10° SSW visible
